Location: Stony Creek
(40.9500°S, 175.8500°E)
Time: 10:09:46
(UTC+00:00)

CORIOLIS - Pass Details

Date: 15 May 2026
Orbit: 816 x 835 km, 98.7° (Epoch: 10 June)

Event Time Altitude Azimuth Distance (km) Brightness Sun altitude
Rises 18:00:46 0° 3° (N) 3,361 7.5 -14.6°
Reaches altitude 10° 18:03:09 10° 359° (N) 2,433 6.7 -14.1°
Maximum altitude 18:08:27 56° 281° (W) 988 4.2 -13.2°
Drops below altitude 10° 18:13:47 10° 202° (SSW) 2,452 6.3 -12.2°
Sets 18:16:12 0° 198° (SSW) 3,390 7.0 -11.7°
